Location: Unspecified
(0.0000°N, 0.0000°E)
Time: 12:02:26
(UTC+00:00)

AEROCUBE 6B - Visible Passes

Search period start: 17 December 2025 00:00
Search period end: 27 December 2025 00:00
Orbit: 551 x 604 km, 97.7° (Epoch: 16 December)

Date Brightness Start Highest point End Pass type
(mag) Time Alt. Az. Time Alt. Az. Time Alt. Az.
17 Dec ? 04:01:26 10° SE 04:05:01 29° ENE 04:07:26 17° NNE visible
18 Dec ? 04:05:20 10° SE 04:09:05 34° ENE 04:11:29 18° NNE visible
19 Dec ? 04:09:16 10° SSE 04:13:07 39° ENE 04:15:32 20° NNE visible
20 Dec ? 04:13:12 10° SSE 04:17:09 45° ENE 04:19:35 21° NNE visible
21 Dec ? 04:17:09 10° SSE 04:21:10 52° ENE 04:23:36 22° N visible
22 Dec ? 04:21:05 10° SSE 04:25:11 61° E 04:27:37 23° N visible
23 Dec ? 04:25:03 10° SSE 04:29:11 71° E 04:31:37 24° N visible
24 Dec ? 04:29:01 10° SSE 04:33:11 82° ENE 04:35:37 24° N visible
25 Dec ? 04:32:59 10° S 04:37:10 86° W 04:39:36 25° NNW visible
26 Dec ? 04:36:58 10° S 04:41:08 75° W 04:43:34 24° NNW visible
